Location: Unspecified
(0.0000°N, 0.0000°E)
Time: 17:15:12
(UTC+02:00)

Amateur Radio Satellites - All Passes

Search period start: 22 September 2017 16:45
Search period end: 23 September 2017 16:45
Location: Unspecified, 0.0000°N, 0.0000°E

Satellite Date Start Highest point End Downlink Frequencies (MHz)
Time Altitude Azimuth
MOZHAYETS 4 22 Sep 16:56:55 17:01:31 87° 102° (ESE) 17:06:07
ITUPSAT 1 22 Sep 17:10:52 17:15:36 63° 282° (WNW) 17:20:21 437.325
CUBESAT XI-V 22 Sep 17:19:57 17:23:31 22° 102° (ESE) 17:27:04 437.345
AO-7 22 Sep 17:45:29 17:53:33 54° 254° (WSW) 18:01:37 .
BEESAT 22 Sep 17:49:55 17:53:18 19° 283° (WNW) 17:56:42 436.000
ITAMSAT 1 22 Sep 17:58:19 18:02:46 29° 257° (WSW) 18:07:13 435.822/435.867
SRMSAT 22 Sep 17:59:33 18:05:14 44° 160° (SSE) 18:10:52 437.500
RS-15 22 Sep 18:23:08 18:34:06 58° 250° (WSW) 18:44:43 29.354- 29.394
JUGNU 22 Sep 18:28:01 18:33:14 31° 341° (NNW) 18:38:26 437.505
DOVE 4 22 Sep 18:46:24 18:51:17 64° 79° (E) 18:55:49 437.250
CUBESAT XI-V 22 Sep 18:57:42 19:00:37 17° 282° (WNW) 19:03:31 437.345
KAITUO 1B 22 Sep 19:04:27 19:05:40 11° 79° (ENE) 19:06:53 145.475/437.950
KKS-1 22 Sep 19:05:00 19:09:15 45° 282° (WNW) 19:13:32 437.445
Tancredo 1 22 Sep 19:10:39 19:12:28 16° 306° (NW) 19:14:17 437.200
BEESAT 3 22 Sep 19:18:58 19:22:10 24° 112° (ESE) 19:25:23 437.485
XW-2D 22 Sep 19:27:54 19:31:34 44° 79° (E) 19:35:13 145.860 - 145.880
STARS 22 Sep 19:33:30 19:37:50 58° 282° (WNW) 19:42:12 437.465
CUTE-I 22 Sep 19:35:03 19:40:06 44° 77° (ENE) 19:45:06 437.470
nSIGHT-1 22 Sep 19:38:06 19:41:11 48° 126° (SE) 19:44:17 .
XW-2B 22 Sep 19:40:03 19:43:52 69° 78° (ENE) 19:47:39 145.730 - 145.750
XW-2F 22 Sep 19:41:17 19:45:04 67° 78° (ENE) 19:48:50 145.980 - 146.000
SRMSAT 22 Sep 19:48:32 19:54:28 68° 339° (NNW) 20:00:21 437.500
XW-2C 22 Sep 20:01:24 20:05:05 49° 258° (WSW) 20:08:48 145.795 - 145.815
CUTE 1.7 + AOD 2 22 Sep 20:04:19 20:07:14 18° 78° (ENE) 20:10:09 437.475
NUDT-PHONESAT 22 Sep 20:09:36 20:13:16 57° 259° (W) 20:16:55 437.300
LilacSat-2 22 Sep 20:12:12 20:15:36 30° 259° (WSW) 20:19:01 437.200
JUGNU 22 Sep 20:19:43 20:22:49 14° 348° (NNW) 20:25:57 437.505
CUBEBUG 2 22 Sep 20:19:49 20:21:31 12° 78° (ENE) 20:23:12 437.445
AO-85 22 Sep 20:27:17 20:31:26 57° 112° (ESE) 20:35:20 145.980
ISS 22 Sep 20:32:28 20:35:09 24° 305° (NW) 20:37:51 437.550
HO-68 22 Sep 20:34:46 20:41:47 58° 76° (ENE) 20:48:45 435.675
KAITUO 1B 22 Sep 20:36:32 20:39:23 20° 259° (WSW) 20:42:14 145.475/437.950
XW-2A 22 Sep 20:47:16 20:49:53 21° 79° (E) 20:52:30 145.665 - 145.685
BEESAT 3 22 Sep 20:58:20 20:59:28 11° 293° (WNW) 21:00:36 437.485
BEESAT 2 22 Sep 20:59:41 21:03:26 47° 292° (WNW) 21:07:14 435.950
SEEDS 22 Sep 21:13:18 21:17:33 79° 257° (WSW) 21:21:47 437.485
AO-73 22 Sep 21:17:35 21:20:12 16° 78° (ENE) 21:22:50 145.935
CUTE-I 22 Sep 21:18:07 21:19:50 11° 257° (WSW) 21:21:33 437.470
ZACube-1 22 Sep 21:19:05 21:22:11 20° 78° (ENE) 21:25:18 437.345
Oscar 11 22 Sep 21:19:47 21:20:57 11° 78° (ENE) 21:22:07 .
FO-29 22 Sep 21:24:08 21:24:49 10° 107° (ESE) 21:25:30 435.910
STRAND 1 22 Sep 21:28:19 21:33:18 51° 283° (WNW) 21:38:19 437.568
SRMSAT 22 Sep 21:38:56 21:43:48 26° 342° (NNW) 21:48:40 437.500
CUTE 1.7 + AOD 2 22 Sep 21:39:52 21:42:47 18° 258° (WSW) 21:45:43 437.475
AAUSAT CUBESAT 2 22 Sep 21:40:18 21:44:30 89° 73° (ENE) 21:48:40 437.432
CUBEBUG 2 22 Sep 21:54:34 21:57:52 23° 258° (WSW) 22:01:10 437.445
UWE-3 22 Sep 22:03:48 22:07:35 35° 259° (WSW) 22:11:25 435.000/436.395/437.385
HO-68 22 Sep 22:25:38 22:29:08 14° 255° (WSW) 22:32:37 435.675
Oscar 11 22 Sep 22:53:02 22:56:48 29° 258° (WSW) 23:00:35 .
AO-73 22 Sep 22:53:13 22:56:09 19° 259° (WSW) 22:59:09 145.935
ZACube-1 22 Sep 22:55:48 22:58:12 15° 259° (WSW) 23:00:38 437.345
UNISAT 6 22 Sep 23:00:10 23:04:17 31° 102° (ESE) 23:08:23 437.425
FO-29 22 Sep 23:02:59 23:09:07 69° 282° (WNW) 23:16:09 435.910
Max Valier Satellite 22 Sep 23:07:31 23:10:59 40° 79° (E) 23:14:26 145.860
DELFI C3 22 Sep 23:21:14 23:25:13 75° 257° (WSW) 23:29:11 145.870
TIGRISAT 22 Sep 23:23:44 23:28:21 59° 102° (ESE) 23:32:57 435.000
SRMSAT 22 Sep 23:31:07 23:33:38 13° 350° (N) 23:36:09 437.500
JUGNU 23 Sep 00:00:47 00:03:06 12° 9° (N) 00:05:24 437.505
EO-88 23 Sep 00:11:34 00:14:31 23° 259° (W) 00:17:27 145.990 - 145.960
PRISM 23 Sep 00:21:39 00:25:24 37° 282° (WNW) 00:29:12 437.425
NO-84 23 Sep 00:29:29 00:32:19 78° 238° (WSW) 00:35:18 435.350 FM
UNISAT 6 23 Sep 00:38:35 00:40:42 13° 282° (WNW) 00:42:48 437.425
YUBILEINY 23 Sep 00:42:14 00:49:47 33° 87° (E) 00:57:21 435.215
ESTCUBE 1 23 Sep 00:48:50 00:53:10 44° 78° (ENE) 00:57:28 437.505/2401.250
NANOSAT C BR1 23 Sep 00:59:20 01:02:38 22° 102° (ESE) 01:05:56 145.865
LO-87 23 Sep 01:11:35 01:14:51 36° 259° (WSW) 01:18:06 145.935 - 145.965
AIST 2D 23 Sep 01:21:28 01:24:32 29° 281° (W) 01:27:37 435.315
VELOX 1 23 Sep 01:24:57 01:27:28 15° 78° (ENE) 01:29:57 145.980
DUCHIFAT 1 23 Sep 01:27:39 01:31:44 49° 102° (ESE) 01:35:51 145.980
SPROUT 23 Sep 01:32:12 01:35:49 28° 78° (ENE) 01:39:25 437.525
SO-50 23 Sep 01:33:41 01:37:36 27° 68° (ENE) 01:41:34 436.795
POLYITAN 1 23 Sep 01:39:23 01:43:40 79° 280° (W) 01:47:56 437.675
EO-79 23 Sep 01:44:03 01:48:17 66° 282° (WNW) 01:52:32 145.935-145.965
JUGNU 23 Sep 01:48:06 01:52:49 25° 17° (NNE) 01:57:30 437.505
QB50P2 23 Sep 01:57:31 02:01:27 36° 282° (WNW) 02:05:23 145.880/145.840
M-CUBED/EXP-1 PRIME 23 Sep 02:06:19 02:09:31 55° 105° (ESE) 02:12:51 437.505
BUGSAT 1 23 Sep 02:07:57 02:11:46 33° 102° (ESE) 02:15:35 437.445
Oscar 19 23 Sep 02:13:50 02:16:51 16° 103° (ESE) 02:19:52 437.125/150
UKube-1 23 Sep 02:33:29 02:35:30 13° 78° (ENE) 02:37:30 .
PCSat 23 Sep 02:34:22 02:39:28 44° 71° (ENE) 02:44:34 145.827
NANOSAT C BR1 23 Sep 02:35:44 02:38:04 15° 282° (WNW) 02:40:24 145.865
DX 1 23 Sep 02:36:19 02:40:00 27° 78° (ENE) 02:43:39 434.975-435.025
YUBILEINY 23 Sep 02:38:43 02:46:11 32° 267° (W) 02:53:43 435.215
50 SAT 23 Sep 02:49:57 02:53:16 66° 79° (ENE) 02:56:33 437.505
VELOX 1 23 Sep 03:00:06 03:03:38 23° 258° (WSW) 03:07:09 145.980
SPROUT 23 Sep 03:10:17 03:11:26 11° 258° (WSW) 03:12:34 437.525
SRMSAT 23 Sep 03:11:19 03:14:14 14° 11° (N) 03:17:08 437.500
SO-50 23 Sep 03:15:01 03:17:50 16° 247° (WSW) 03:20:40 436.795
O/OREOS (USA 219) 23 Sep 03:21:05 03:25:19 43° 284° (WNW) 03:29:34 437.305
Gurwin Techsat 1B 23 Sep 03:26:50 03:32:08 79° 103° (ESE) 03:37:28 435.225
JUGNU 23 Sep 03:36:12 03:42:00 64° 21° (NNE) 03:47:47 437.505
Oscar 19 23 Sep 03:51:27 03:55:53 30° 283° (WNW) 04:00:21 437.125/150
RS-15 23 Sep 03:55:26 04:03:09 20° 112° (ESE) 04:10:59 29.354- 29.394
ITUPSAT 1 23 Sep 03:58:08 04:00:17 13° 77° (ENE) 04:02:25 437.325
UKube-1 23 Sep 04:07:42 04:11:14 25° 258° (WSW) 04:14:45 .
DX 1 23 Sep 04:14:05 04:15:54 12° 257° (WSW) 04:17:43 434.975-435.025
AO-7 23 Sep 04:20:12 04:27:24 34° 107° (ESE) 04:34:36 .
PCSat 23 Sep 04:20:43 04:22:36 12° 250° (WSW) 04:24:30 145.827
BEESAT 23 Sep 04:33:10 04:37:38 41° 78° (ENE) 04:42:04 436.000
ITAMSAT 1 23 Sep 04:53:29 04:58:27 44° 103° (ESE) 05:03:24 435.822/435.867
SRMSAT 23 Sep 04:58:55 05:04:00 29° 19° (NNE) 05:09:06 437.500
MOZHAYETS 4 23 Sep 05:13:38 05:18:07 54° 258° (WSW) 05:22:35
JUGNU 23 Sep 05:25:27 05:31:02 46° 200° (SSW) 05:36:38 437.505
ITUPSAT 1 23 Sep 05:33:38 05:37:49 31° 257° (WSW) 05:42:01 437.325
CUBESAT XI-V 23 Sep 05:37:19 05:41:44 40° 78° (ENE) 05:46:07 437.345
KKS-1 23 Sep 05:44:04 05:45:26 11° 78° (ENE) 05:46:47 437.445
RS-15 23 Sep 06:03:27 06:15:11 71° 290° (WNW) 06:27:25 29.354- 29.394
AO-7 23 Sep 06:12:41 06:19:47 33° 286° (WNW) 06:26:58 .
Tancredo 1 23 Sep 06:29:31 06:32:09 55° 235° (SW) 06:34:48 437.200
ITAMSAT 1 23 Sep 06:36:18 06:37:36 11° 283° (WNW) 06:38:55 435.822/435.867
SRMSAT 23 Sep 06:47:21 06:53:19 78° 22° (NNE) 06:59:18 437.500
DOVE 4 23 Sep 07:06:13 07:10:42 69° 281° (W) 07:15:32 437.250
BEESAT 3 23 Sep 07:10:38 07:13:44 23° 68° (ENE) 07:16:48 437.485
nSIGHT-1 23 Sep 07:11:09 07:13:58 27° 54° (NE) 07:16:47 .
JUGNU 23 Sep 07:16:18 07:20:22 19° 195° (SSW) 07:24:28 437.505
KKS-1 23 Sep 07:17:49 07:21:43 30° 258° (WSW) 07:25:35 437.445
XW-2D 23 Sep 07:21:37 07:25:03 34° 101° (E) 07:28:28 145.860 - 145.880
XW-2B 23 Sep 07:33:42 07:37:22 52° 102° (ESE) 07:41:01 145.730 - 145.750
XW-2F 23 Sep 07:34:28 07:38:06 50° 101° (ESE) 07:41:43 145.980 - 146.000
STARS 23 Sep 07:44:33 07:48:38 40° 258° (WSW) 07:52:42 437.465
XW-2C 23 Sep 07:54:55 07:58:38 64° 282° (WNW) 08:02:21 145.795 - 145.815
NUDT-PHONESAT 23 Sep 08:00:43 08:04:23 82° 284° (WNW) 08:08:04 437.300
ISS 23 Sep 08:05:54 08:08:59 40° 235° (SW) 08:12:06 437.550
LilacSat-2 23 Sep 08:06:21 08:09:50 37° 281° (WNW) 08:13:20 437.200
CUTE 1.7 + AOD 2 23 Sep 08:10:12 08:13:23 21° 101° (ESE) 08:16:36 437.475
CUTE-I 23 Sep 08:14:00 08:19:16 63° 282° (WNW) 08:24:34 437.470
STRAND 1 23 Sep 08:23:01 08:27:02 24° 77° (ENE) 08:31:01 437.568
HO-68 23 Sep 08:26:24 08:33:16 49° 104° (ESE) 08:40:09 435.675
KAITUO 1B 23 Sep 08:28:18 08:31:25 26° 281° (WNW) 08:34:33 145.475/437.950
CUBEBUG 2 23 Sep 08:30:10 08:33:49 22° 102° (ESE) 08:37:26 437.445
XW-2A 23 Sep 08:31:24 08:32:14 11° 101° (ESE) 08:33:03 145.665 - 145.685
SRMSAT 23 Sep 08:37:01 08:42:34 39° 200° (SSW) 08:48:07 437.500
AO-85 23 Sep 08:38:10 08:43:08 75° 250° (WSW) 08:48:24 145.980
UWE-3 23 Sep 08:40:06 08:42:33 14° 102° (ESE) 08:45:00 435.000/436.395/437.385
BEESAT 3 23 Sep 08:50:22 08:51:00 10° 248° (WSW) 08:51:39 437.485
BEESAT 2 23 Sep 08:52:35 08:56:21 45° 248° (WSW) 09:00:04 435.950
JUGNU 23 Sep 09:09:01 09:10:16 11° 186° (S) 09:11:31 437.505
SEEDS 23 Sep 09:18:27 09:22:33 65° 282° (WNW) 09:26:40 437.485
AO-73 23 Sep 09:26:06 09:29:42 24° 101° (ESE) 09:33:15 145.935
Oscar 11 23 Sep 09:27:10 09:29:33 15° 102° (ESE) 09:31:55 .
ZACube-1 23 Sep 09:28:05 09:32:02 30° 101° (ESE) 09:35:55 437.345
AAUSAT CUBESAT 2 23 Sep 09:43:37 09:47:42 82° 281° (WNW) 09:51:48 437.432
CUTE 1.7 + AOD 2 23 Sep 09:46:43 09:48:57 14° 282° (WNW) 09:51:11 437.475
STRAND 1 23 Sep 10:02:15 10:05:56 20° 257° (WSW) 10:09:37 437.568
XW-2A 23 Sep 10:02:32 10:04:40 16° 281° (WNW) 10:06:48 145.665 - 145.685
CUBEBUG 2 23 Sep 10:06:50 10:10:07 19° 282° (WNW) 10:13:26 437.445
UWE-3 23 Sep 10:14:48 10:18:43 27° 282° (WNW) 10:22:37 435.000/436.395/437.385
HO-68 23 Sep 10:16:08 10:20:38 18° 285° (WNW) 10:25:10 435.675
SRMSAT 23 Sep 10:28:21 10:32:12 17° 194° (SSW) 10:36:03 437.500
FO-29 23 Sep 10:37:21 10:44:04 69° 78° (ENE) 10:49:55 435.910
Max Valier Satellite 23 Sep 10:58:35 11:01:49 28° 101° (ESE) 11:05:01 145.860
JUGNU 23 Sep 10:59:33 11:00:29 10° 175° (S) 11:01:25 437.505
Oscar 11 23 Sep 11:02:03 11:05:24 22° 282° (WNW) 11:08:45 .
AO-73 23 Sep 11:03:02 11:05:38 15° 282° (WNW) 11:08:11 145.935
ZACube-1 23 Sep 11:06:15 11:08:00 12° 282° (WNW) 11:09:44 437.345
UNISAT 6 23 Sep 11:13:19 11:17:21 43° 78° (ENE) 11:21:25 437.425
DELFI C3 23 Sep 11:19:11 11:23:04 82° 281° (WNW) 11:27:01 145.870
TIGRISAT 23 Sep 11:37:00 11:41:15 88° 65° (ENE) 11:45:31 435.000
EO-88 23 Sep 12:00:43 12:04:00 34° 281° (WNW) 12:07:20 145.990 - 145.960
NO-84 23 Sep 12:11:32 12:15:52 84° 119° (ESE) 12:20:01 435.350 FM
SRMSAT 23 Sep 12:21:23 12:22:23 10° 184° (S) 12:23:24 437.500
PRISM 23 Sep 12:24:10 12:27:58 35° 258° (WSW) 12:31:44 437.425
QB50P2 23 Sep 12:31:45 12:32:07 10° 78° (ENE) 12:32:30 145.880/145.840
JUGNU 23 Sep 12:46:30 12:50:28 18° 166° (SSE) 12:54:25 437.505
LO-87 23 Sep 12:58:52 13:02:26 63° 281° (WNW) 13:06:03 145.935 - 145.965
ESTCUBE 1 23 Sep 13:02:38 13:07:05 70° 102° (ESE) 13:11:32 437.505/2401.250
NANOSAT C BR1 23 Sep 13:04:44 13:08:13 25° 78° (ENE) 13:11:39 145.865
AIST 2D 23 Sep 13:06:51 13:10:19 54° 259° (W) 13:13:46 435.315
YUBILEINY 23 Sep 13:14:48 13:23:28 64° 93° (E) 13:32:02 435.215
DUCHIFAT 1 23 Sep 13:32:54 13:37:00 58° 78° (ENE) 13:41:04 145.980
VELOX 1 23 Sep 13:35:25 13:38:44 21° 102° (ESE) 13:42:04 145.980
SPROUT 23 Sep 13:38:46 13:42:41 35° 102° (ESE) 13:46:37 437.525
POLYITAN 1 23 Sep 13:45:39 13:49:48 62° 259° (W) 13:53:55 437.675
SO-50 23 Sep 13:46:00 13:50:25 48° 112° (ESE) 13:54:44 436.795
EO-79 23 Sep 13:50:11 13:54:16 53° 258° (WSW) 13:58:20 145.935-145.965
O/OREOS (USA 219) 23 Sep 13:54:53 13:57:11 14° 75° (ENE) 13:59:29 437.305
QB50P2 23 Sep 14:03:59 14:07:38 29° 258° (WSW) 14:11:16 145.880/145.840
M-CUBED/EXP-1 PRIME 23 Sep 14:04:20 14:08:55 60° 75° (ENE) 14:13:18 437.505
SRMSAT 23 Sep 14:10:57 14:12:48 11° 173° (S) 14:14:38 437.500
BUGSAT 1 23 Sep 14:11:05 14:14:43 34° 78° (ENE) 14:18:20 437.445
Gurwin Techsat 1B 23 Sep 14:28:12 14:31:01 15° 77° (ENE) 14:33:49 435.225
50 SAT 23 Sep 14:31:09 14:34:02 27° 102° (ESE) 14:36:55 437.505
JUGNU 23 Sep 14:34:16 14:39:54 41° 160° (SSE) 14:45:31 437.505
UKube-1 23 Sep 14:40:54 14:43:42 17° 103° (ESE) 14:46:31 .
NANOSAT C BR1 23 Sep 14:42:12 14:43:38 12° 258° (WSW) 14:45:04 145.865
DX 1 23 Sep 14:45:26 14:49:24 36° 102° (ESE) 14:53:24 434.975-435.025
Oscar 19 23 Sep 14:45:39 14:50:31 41° 78° (ENE) 14:55:22 437.125/150
PCSat 23 Sep 15:10:18 15:15:36 59° 289° (WNW) 15:20:55 145.827
VELOX 1 23 Sep 15:12:09 15:14:54 16° 282° (WNW) 15:17:40 145.980
YUBILEINY 23 Sep 15:15:38 15:19:50 14° 273° (W) 15:24:03 435.215
O/OREOS (USA 219) 23 Sep 15:32:30 15:36:18 26° 256° (WSW) 15:40:08 437.305
RS-15 23 Sep 15:40:31 15:45:52 14° 65° (ENE) 15:51:05 29.354- 29.394
MOZHAYETS 4 23 Sep 15:56:16 15:57:52 12° 102° (ESE) 15:59:27
SRMSAT 23 Sep 15:58:26 16:02:51 21° 164° (SSE) 16:07:13 437.500
Gurwin Techsat 1B 23 Sep 16:05:52 16:10:40 35° 257° (WSW) 16:15:29 435.225
UKube-1 23 Sep 16:16:22 16:19:26 19° 282° (WNW) 16:22:31 .
ITUPSAT 1 23 Sep 16:18:30 16:22:26 26° 103° (ESE) 16:26:22 437.325
JUGNU 23 Sep 16:22:59 16:28:59 73° 339° (NNW) 16:34:59 437.505
Oscar 19 23 Sep 16:27:44 16:29:32 12° 257° (WSW) 16:31:20 437.125/150
